Regional Weather Roundup
Issued by NWS Bismarck, ND

Home | Current Version | Previous Version | Text Only | Print | Product List | Glossary On
Versions: 1 2 3 4 5 6 7 8 9 10 11 12 13 14 15 16 17 18 19 20 21 22 23 24 25 26 27 28 29 30 31 32 33 34 35 36 37 38 39 40 41 42 43 44 45 46 47 48 49 50
000
ASUS43 KBIS 281810
RWRBIS

NWR BROADCAST TEXT
NATIONAL WEATHER SERVICE BISMARCK ND
100 PM CDT FRI APR 28 2017

NOTE: "FAIR" INDICATES FEW OR NO CLOUDS BELOW 12,000 FEET WITH NO
SIGNIFICANT WEATHER AND/OR OBSTRUCTIONS TO VISIBILITY.


CITY           SKY/WX    TMP DP  RH WIND       PRES   REMARKS
WILLISTON      FAIR      54  23  30 VRB3      30.05S
MINOT          FAIR      52  14  22 NW8       30.05R
MINOT AFB      FAIR      50  15  24 NE6       30.04S
BISMARCK       FAIR      53  18  25 N12       30.04S
DICKINSON      FAIR      49  20  31 E14G20    30.00S
GARRISON         N/A     49  12  22 MISG      30.04S
HETTINGER ARPT FAIR      48  25  40 E10G21    30.01R
JAMESTOWN      FAIR      49  20  31 N12G21    30.01R
HAZEN          FAIR      50  19  29 NE8       30.07R
LINTON           N/A     50  21  32 E13G22    30.03S
MANDAN         FAIR      50  18  27 N14       30.04S
STANLEY        FAIR      48  21  34 SW3       30.07R
TIOGA          FAIR      48  18  29 VRB7      30.05S
WATFORD CITY   FAIR      50  19  29 VRB5      30.04S
$$

CITY           SKY/WX    TMP DP  RH WIND       PRES   REMARKS
GRAND FORKS    FAIR      49  29  46 N20G26    29.99S
GRAND FORKS AF FAIR      48  24  40 N14       30.00R
DEVILS LAKE    FAIR      49  14  24 N16       30.03R
FARGO          FAIR      48  27  44 NW9       30.00S
CAVALIER       FAIR      48  19  32 NW18G24   30.00R
GRAFTON        FAIR      48  21  34 N16G25    30.01S
GWINNER        CLEAR     48  25  40 MISG      30.01S
LANGDON        FAIR      52  10  19 N16G23    30.00R
ROLLA          FAIR      48  10  21 N17G23    30.03R
$$

CITY           SKY/WX    TMP DP  RH WIND       PRES   REMARKS
ABERDEEN       FAIR      50  20  30 NE18G26   30.00R
MOBRIDGE       FAIR      52  18  26 NE17G24   29.98R
BUFFALO          N/A     47  26  44 NE12      29.93R
RAPID CITY     CLOUDY    43  28  55 E13       29.96R
GLASGOW        CLOUDY    52  20  28 VRB6      30.02S
SIDNEY         FAIR      53  21  28 VRB6      30.04S
WOLF POINT     FAIR      54  17  23 VRB6      30.03S
GLENDIVE       FAIR      49  24  37 VRB6      30.03R
MILES CITY     FAIR      50  27  40 SE7       30.01R
BAKER          FAIR      48  25  40 E7        30.01R
$$

CITY           SKY/WX    TMP DP  RH WIND       PRES   REMARKS
BILLINGS       CLOUDY    44  36  73 NE9       30.00R
GREAT FALLS    PTSUNNY   47  35  63 VRB3      30.04R
REGINA         MOSUNNY   55  16  21 VRB7      30.01F
ESTEVAN        PTSUNNY   50  18  27 SE6       30.05S
$$





USA.gov is the U.S. government's official web portal to all federal, state and local government web resources and services.